Regional Weather Roundup
Issued by NWS Sioux Falls, SD

Home | Current Version | Previous Version | Text Only | Print | Product List | Glossary On
Versions: 1 2 3 4 5 6 7 8 9 10 11 12 13 14 15 16 17 18 19 20 21 22 23 24 25 26 27 28 29 30 31 32 33 34 35 36 37 38 39 40 41 42 43 44 45 46 47 48 49 50
000
ASUS43 KFSD 232102
RWRFSD

WEATHER ROUNDUP FOR SE SOUTH DAKOTA/SW MINNESOTA/NW IOWA
NATIONAL WEATHER SERVICE SIOUX FALLS SD
400 PM CDT SAT MAY 23 2015

NOTE: "FAIR" INDICATES FEW OR NO CLOUDS BELOW 12,000 FEET WITH NO
SIGNIFICANT WEATHER AND OR OBSTRUCTIONS TO VISIBILITY.


SDZ038>040-050-052>070-232200-
SOUTHEAST SOUTH DAKOTA

CITY           SKY/WX    TMP DP  RH WIND       PRES   REMARKS
BROOKINGS      CLOUDY    64  48  55 SE5       30.14F
CHAMBERLAIN    CLOUDY    62  54  77 SE10      30.08F
HURON          CLOUDY    65  52  62 S10       30.10F
MADISON        CLOUDY    64  48  55 S10       30.13F
MITCHELL       CLOUDY    64  53  67 SE15      30.11F
SIOUX FALLS    CLOUDY    66  52  60 S8        30.11F
WINNER         CLOUDY    62  54  74 SE15      30.07F
YANKTON        CLOUDY    63  54  72 SE14      30.10F
$$

MNZ071-072-080-081-089-090-097-098-232200-
SOUTHWEST MINNESOTA

CITY           SKY/WX    TMP DP  RH WIND       PRES   REMARKS
FAIRMONT       CLOUDY    72  45  37 S21G29    30.14F
JACKSON        CLOUDY    68  54  60 S5        30.15F
LUVERNE        CLOUDY    70  48  46 S15       30.12F
MARSHALL       CLOUDY    70  46  43 SE13      30.13F
MONTEVIDEO     CLOUDY    66  48  52 S9        30.18S
REDWOOD FALLS  CLOUDY    67  48  50 E7        30.16F
TRACY          CLOUDY    71  49  46 SE8       30.14F
WINDOM         CLOUDY    70  48  46 S14G20    30.15F
WORTHINGTON    CLOUDY    70  45  40 SE14G20   30.14F
$$

IAZ001>003-012>014-020>022-031-032-NEZ013-014-SDZ071-232200-
NORTHWEST IOWA

CITY           SKY/WX    TMP DP  RH WIND       PRES   REMARKS
DENISON        CLOUDY    66  55  68 S13       30.11F
ESTHERVILLE    CLOUDY    70  47  43 SE18G29   30.14F
SIOUX CITY     CLOUDY    65  53  65 S9        30.12F
SPENCER        CLOUDY    69  48  47 SE16      30.14S
$$

ABBREVIATIONS USED IN REMARKS
   TC - TEMPERATURE IN CELSIUS
  WCI - WIND CHILL INDEX
   HX - HEAT INDEX
  VSB - VISIBILITY



USA.gov is the U.S. government's official web portal to all federal, state and local government web resources and services.